Flag for Chile Weather past 2 weeks in Valdivia, Chile

Now
59 °F

Broken clouds.


Feels Like: 57 °F
Forecast: 46 / 64 °F
Wind: 12 mph from North

Location: Puerto Montt Airport

Current Time: Mar 31, 2015 at 1:07:14 PM

Latest Report: Mar 31, 2015 at 12:00 PM


Visibility: N/A

Pressure: 30.18 "Hg

Humidity: 72%

Dew point: 50 °F

Location of ValdiviaLocation

Historic Weather in Valdivia — Graph

°F

Valdivia temperature yesterday

Maximum temperature yesterday: 61 °F (at 4:00 PM)
Minimum temperature yesterday: 48 °F (at 8:00 AM)
Average temperature yesterday: 53 °F

Past Weeks' High & Low Weather Summary

 TemperatureHumidityPressure
High81 °F (Mar 26, 5:00 PM)100% (Mar 17, 6:00 AM)30.33 "Hg (Mar 17, 6:00 AM)
Low37 °F (Mar 18, 8:00 AM)22% (Mar 25, 1:00 PM)29.77 "Hg (Mar 16, 12:00 PM)
Average55 °F77%30.09 "Hg
* Reported Mar 16 12:00 Noon — Mar 31 12:00 Noon, Valdivia, Weather by CustomWeather, © 2015

Note: Actual official high and low records may vary slightly from our data, if they occured in-between our weather recording intervals... More about our weather records

Advertising

Valdivia weather history for previous 24 hours

 ConditionsComfort  
Time TempWeatherWind HumidityBarometerVisibility
12:00 PM
Tue, Mar 31
59 °FBroken clouds.12 mph72%30.18 "HgN/A
11:00 AM55 °FScattered clouds.10 mph82%30.18 "HgN/A
10:00 AM52 °FBroken clouds.8 mph94%30.18 "HgN/A
9:00 AM50 °FDrizzle. Partly sunny.7 mph94%30.18 "Hg4 mi
8:00 AM50 °FOvercast.6 mph88%30.18 "HgN/A
7:00 AM50 °FOvercast.6 mph88%30.18 "HgN/A
6:00 AM50 °FOvercast.5 mph94%30.21 "HgN/A
5:00 AM50 °FPassing clouds.5 mph94%30.21 "HgN/A
4:00 AM50 °FPassing clouds.2 mph94%30.21 "HgN/A
3:00 AM50 °FPassing clouds.2 mph88%30.21 "HgN/A
2:00 AM50 °FPassing clouds.2 mph88%30.24 "HgN/A
1:00 AM48 °FPassing clouds.2 mph94%30.24 "HgN/A
12:00 AM46 °FPassing clouds.No wind93%30.24 "HgN/A
11:00 PM
Mon, Mar 30
48 °FClear.No wind94%30.24 "Hg10 mi
10:00 PM52 °FPassing clouds.No wind88%30.24 "HgN/A
9:00 PM54 °FPassing clouds.3 mph82%30.21 "HgN/A
8:00 PM55 °FPassing clouds.3 mph72%30.21 "HgN/A
7:00 PM57 °FPassing clouds.6 mph63%30.21 "HgN/A
6:00 PM57 °FPartly sunny.3 mph59%30.21 "HgN/A
5:00 PM59 °FPartly sunny.5 mph55%30.21 "HgN/A
4:00 PM61 °FPartly sunny.3 mph52%30.21 "HgN/A
3:00 PM57 °FPartly sunny.6 mph59%30.21 "HgN/A
2:00 PM57 °FPartly sunny.6 mph55%30.24 "HgN/A
1:00 PM57 °FPartly sunny.5 mph59%30.24 "HgN/A
Weather by CustomWeather, © 2015

See weather overviewHow to use our weather pages